Date_and_time,latitude,longitude,wind_speed,RelWindDirFrom,WindDirFrom,air_pressure,air_temperature,relative_humidity,Temp,platform_speed_wrt_ground,air_pressure_at_mean_sea_level,platform_orientation
2019-09-26 23:50,50.6304616666667,-96.9807733333333,5.1,8.6,208,975.11,9.1,61,15.37,0.0,1001.60,270.0
2019-09-27 00:00,50.63046,-96.980775,4.7,6.6,213,975.18,8.7,65,15.36,0.0,1001.69,360.0
2019-09-27 00:10,50.6304516666667,-96.98077,3.7,5.9,254,975.18,8.5,67,15.35,0.0,1001.70,360.0
2019-09-27 00:20,50.630455,-96.9807733333333,4.8,6.2,236,975.20,8.0,70,15.35,0.0,1001.74,360.0
2019-09-27 00:30,50.6304566666667,-96.9807716666667,4.4,6.1,243,975.23,7.7,75,15.34,0.0,1001.80,360.0
2019-09-27 00:40,50.6304566666667,-96.9807733333333,4.3,5.7,236,975.25,7.5,79,15.33,0.0,1001.82,360.0
2019-09-27 00:50,50.6304583333333,-96.9807766666667,4.6,6.9,241,975.30,7.3,79,15.33,0.0,1001.89,360.0
2019-09-27 01:00,50.6304583333333,-96.9807783333333,4.9,6.2,235,975.26,7.2,81,15.34,0.0,1001.88,360.0
2019-09-27 01:10,50.63046,-96.9807783333333,4.5,6.6,242,975.35,7.1,84,15.33,0.0,1002.01,360.0
2019-09-27 01:20,50.6304583333333,-96.9807783333333,4.7,6.5,244,975.44,6.9,84,15.31,0.0,1002.12,360.0
2019-09-27 01:30,50.6304583333333,-96.9807766666667,4.2,5.7,255,975.47,6.8,88,15.30,0.0,1002.17,360.0
2019-09-27 01:40,50.6304566666667,-96.9807766666667,4.0,6.1,261,975.44,6.8,91,15.29,0.0,1002.17,360.0
2019-09-27 01:50,50.6304533333333,-96.98076,4.0,5.5,259,975.45,6.8,89,15.28,0.0,1002.20,360.0
2019-09-27 02:00,50.6304483333333,-96.9807783333333,4.6,6.1,264,975.43,6.7,89,15.27,0.0,1002.19,111.5
2019-09-27 02:10,50.63045,-96.980775,4.2,6.0,273,975.38,6.7,91,15.26,0.0,1002.16,111.5
2019-09-27 02:20,50.6304516666667,-96.980775,4.2,5.8,271,975.36,6.6,93,15.26,0.0,1002.16,111.5
2019-09-27 02:30,50.63045,-96.980775,4.4,6.2,267,975.28,6.5,93,15.26,0.0,1002.09,111.5
2019-09-27 02:40,50.6304516666667,-96.9807766666667,4.2,5.8,267,975.26,6.5,93,15.26,0.0,1002.08,111.5
2019-09-27 02:50,50.6304516666667,-96.9807766666667,4.0,5.7,274,975.23,6.5,94,15.26,0.0,1002.06,111.5
2019-09-27 03:00,50.63045,-96.9807783333333,4.7,7.5,286,975.14,6.4,96,15.26,0.0,1001.97,240.8
2019-09-27 03:10,50.63045,-96.9807783333333,4.7,6.5,302,975.16,6.4,96,15.25,0.0,1002.01,240.8
2019-09-27 03:20,50.6304333333333,-96.980795,4.7,6.3,305,975.12,6.3,96,15.24,0.0,1001.97,240.8
2019-09-27 03:30,50.63045,-96.9807716666667,4.3,6.1,301,975.11,6.3,97,15.22,0.0,1001.97,240.8
2019-09-27 03:40,50.63045,-96.9807716666667,5.2,6.9,303,975.06,6.4,98,15.21,0.0,1001.90,240.8
2019-09-27 03:50,50.6304516666667,-96.9807783333333,6.5,8.6,308,975.00,6.3,98,15.21,0.0,1001.86,240.8
2019-09-27 04:00,50.6304516666667,-96.9807783333333,5.3,7.8,315,975.03,6.3,99,15.20,0.0,1001.89,142.0
2019-09-27 04:10,50.6304516666667,-96.98078,5.2,7.3,321,974.96,6.5,99,15.20,0.0,1001.81,142.0
2019-09-27 04:20,50.63045,-96.9807783333333,5.8,8.7,329,974.89,6.6,98,15.20,0.0,1001.74,142.0
2019-09-27 04:30,50.63045,-96.9807783333333,5.7,8.1,326,974.88,6.6,98,15.19,0.0,1001.73,142.0
2019-09-27 04:40,50.6304483333333,-96.9807783333333,5.4,7.6,321,974.83,6.6,98,15.18,0.0,1001.67,142.0
2019-09-27 04:50,50.63045,-96.9807716666667,4.8,7.1,314,974.79,6.6,98,15.18,0.0,1001.64,142.0
2019-09-27 05:00,50.6304566666667,-96.980785,5.1,7.0,313,974.78,6.6,98,15.17,0.0,1001.63,38.0
2019-09-27 05:10,50.63046,-96.9807816666667,7.0,9.3,312,974.72,6.5,99,15.16,0.0,1001.57,38.0
2019-09-27 05:20,50.6304583333333,-96.9807766666667,7.0,11.3,320,974.67,6.6,99,15.15,0.0,1001.52,38.0
2019-09-27 05:30,50.6304566666667,-96.9807733333333,5.7,9.1,321,974.65,6.7,99,15.15,0.0,1001.49,38.0
2019-09-27 05:40,50.6304566666667,-96.9807733333333,5.9,11.3,326,974.60,7.0,97,15.15,0.0,1001.43,38.0
2019-09-27 05:50,50.6304583333333,-96.980775,7.1,14.5,340,974.57,7.7,91,15.12,0.0,1001.36,38.0
2019-09-27 06:00,50.6304583333333,-96.9807733333333,14.0,18.6,27,974.42,9.3,70,15.11,0.0,1001.12,60.8
2019-09-27 06:10,50.630475,-96.9807866666667,14.6,18.1,31,974.43,9.9,64,15.11,0.0,1001.10,60.8
2019-09-27 06:20,50.63047,-96.98078,16.0,19.6,38,974.44,9.9,66,15.12,0.0,1001.11,60.8
2019-09-27 06:30,50.630465,-96.98076,16.2,21.0,36,974.44,9.9,65,15.15,0.0,1001.11,60.8
2019-09-27 06:40,50.6304633333333,-96.980765,16.0,20.3,39,974.41,9.8,64,15.17,0.0,1001.09,60.8
2019-09-27 06:50,50.63046,-96.9807666666667,15.6,21.1,34,974.39,9.7,63,15.13,0.0,1001.07,60.8
2019-09-27 07:00,50.6304666666667,-96.9807866666667,15.6,21.8,34,974.44,9.7,61,15.12,0.0,1001.12,336.5
2019-09-27 07:10,50.6304616666667,-96.9807783333333,14.7,19.9,33,974.60,9.7,60,15.10,0.0,1001.28,336.5
2019-09-27 07:20,50.63046,-96.9807766666667,15.6,19.3,32,974.73,9.6,60,15.07,0.0,1001.41,336.5
2019-09-27 07:30,50.6304616666667,-96.9807766666667,13.8,18.0,35,974.91,9.7,62,15.03,0.0,1001.58,336.5
2019-09-27 07:40,50.63046,-96.980775,13.8,17.9,34,974.93,9.6,58,15.02,0.0,1001.57,336.5
2019-09-27 07:50,50.63046,-96.9807733333333,13.3,17.0,27,975.05,9.5,56,15.01,0.0,1001.62,336.5
2019-09-27 08:00,50.63046,-96.9807733333333,13.3,17.1,33,975.11,9.5,57,14.99,0.0,1001.66,54.7
2019-09-27 08:10,50.63046,-96.9807716666667,13.6,18.1,36,975.20,9.6,57,14.98,0.0,1001.75,54.7
2019-09-27 08:20,50.63046,-96.9807716666667,13.2,18.4,35,975.27,9.6,57,14.97,0.0,1001.82,54.7
2019-09-27 08:30,50.63046,-96.9807733333333,10.7,13.8,22,975.47,9.6,58,14.98,0.0,1002.03,54.7
2019-09-27 08:40,50.6304583333333,-96.9807733333333,5.4,13.2,348,975.73,8.4,66,15.01,0.0,1002.36,54.7
2019-09-27 08:50,50.6304583333333,-96.9807733333333,5.6,8.1,302,975.97,6.3,76,15.04,0.0,1002.71,54.7
2019-09-27 09:00,50.6304583333333,-96.9807733333333,6.3,8.9,306,976.03,5.4,79,15.05,0.0,1002.81,0.0
2019-09-27 09:10,50.63045,-96.980775,7.0,9.5,308,976.08,5.0,80,15.05,0.0,1002.89,0.0
2019-09-27 09:20,50.6304316666667,-96.980765,7.6,9.3,309,976.15,4.7,81,15.03,0.0,1002.97,0.0
2019-09-27 09:30,50.630455,-96.980775,7.0,9.0,306,976.26,4.6,82,15.01,0.0,1003.09,0.0
2019-09-27 09:40,50.6304516666667,-96.98077,7.0,9.5,302,976.37,4.5,83,14.99,0.0,1003.21,0.0
2019-09-27 09:50,50.63045,-96.9807633333333,6.9,9.6,299,976.48,4.1,87,14.96,0.0,1003.34,0.0
2019-09-27 10:00,50.6304533333333,-96.9807666666667,6.5,9.1,299,976.57,3.9,89,14.95,0.0,1003.44,137.0
2019-09-27 10:10,50.6304533333333,-96.9807683333333,7.5,10.3,300,976.64,3.8,89,14.91,0.0,1003.52,137.0
2019-09-27 10:20,50.6304533333333,-96.98077,7.1,10.0,304,976.75,3.8,88,14.91,0.0,1003.63,137.0
2019-09-27 10:30,50.6304533333333,-96.98077,6.8,9.3,300,976.88,4.0,87,14.90,0.0,1003.82,137.0
2019-09-27 10:40,50.6304533333333,-96.98077,6.8,10.3,299,976.96,3.9,87,14.88,0.0,1004.00,137.0
2019-09-27 10:50,50.6304533333333,-96.98077,7.7,11.0,300,977.00,3.8,87,14.88,0.0,1004.09,137.0
2019-09-27 11:00,50.630455,-96.98077,7.4,10.7,301,977.16,3.8,87,14.89,0.0,1004.28,167.4
2019-09-27 11:10,50.630455,-96.98077,6.7,8.9,294,977.37,3.8,87,14.91,0.0,1004.51,167.4
2019-09-27 11:20,50.6304566666667,-96.98077,6.8,9.8,296,977.52,3.8,88,14.90,0.0,1004.68,167.4
2019-09-27 11:30,50.6304566666667,-96.98077,7.4,10.2,304,977.59,3.6,88,14.89,0.0,1004.75,167.4
2019-09-27 11:40,50.63045,-96.9807366666667,6.1,8.8,302,977.65,3.6,88,14.86,0.0,1004.84,167.4
2019-09-27 11:50,50.6304533333333,-96.9807566666667,6.4,9.5,300,977.73,3.6,89,14.82,0.0,1004.93,167.4
2019-09-27 12:00,50.63045,-96.9807666666667,8.1,11.2,306,977.81,3.5,89,14.81,0.0,1005.03,131.7
2019-09-27 12:10,50.6304533333333,-96.98078,8.2,11.6,306,977.89,3.5,88,14.80,0.0,1005.10,131.7
2019-09-27 12:20,50.630455,-96.9807783333333,7.9,11.4,307,978.05,3.5,87,14.77,0.0,1005.26,131.7
2019-09-27 12:30,50.6304533333333,-96.9807766666667,6.7,9.4,302,978.21,3.6,86,14.76,0.0,1005.42,131.7
2019-09-27 12:40,50.6304583333333,-96.9807783333333,6.3,10.2,296,978.37,3.6,85,14.75,0.0,1005.59,131.7
2019-09-27 12:50,50.6304566666667,-96.9807783333333,6.5,9.6,296,978.56,3.6,85,14.73,0.0,1005.79,131.7
2019-09-27 13:00,50.6304583333333,-96.9807783333333,5.9,8.5,286,978.74,3.4,86,14.72,0.0,1005.99,293.6
2019-09-27 13:10,50.63046,-96.98078,5.9,7.9,276,978.88,3.0,87,14.72,0.0,1006.14,293.6
2019-09-27 13:20,50.6304633333333,-96.9807616666667,4.9,6.7,273,979.00,3.1,87,14.74,0.0,1006.27,293.6
2019-09-27 13:30,50.6304566666667,-96.980765,5.3,7.8,269,979.16,3.4,87,14.73,0.0,1006.43,293.6
2019-09-27 13:40,50.6304583333333,-96.9807683333333,5.3,7.7,272,979.32,3.7,86,14.69,0.0,1006.58,293.6
2019-09-27 13:50,50.6304616666667,-96.9807716666667,6.2,9.1,276,979.48,4.0,85,14.57,0.0,1006.73,293.6
2019-09-27 14:00,50.6304616666667,-96.9807533333333,6.1,9.0,277,979.66,4.5,83,14.56,0.0,1006.89,12.6
2019-09-27 14:10,50.6304583333333,-96.9807666666667,5.1,7.7,275,979.73,4.9,82,14.54,0.0,1006.94,12.6
2019-09-27 14:20,50.6304616666667,-96.980775,5.1,7.4,276,979.85,5.2,81,14.47,0.0,1007.05,12.6
2019-09-27 14:30,50.6304616666667,-96.9807766666667,4.9,7.2,275,980.04,5.7,80,14.44,0.0,1007.22,12.6
2019-09-27 14:40,50.6304383333333,-96.9808,5.8,10.4,285,980.07,6.2,79,14.41,0.0,1007.22,12.6
2019-09-27 14:50,50.6304583333333,-96.98077,6.6,9.9,281,980.15,6.4,78,14.32,0.0,1007.31,12.6
2019-09-27 15:00,50.63046,-96.980775,5.9,8.8,274,980.24,6.7,78,14.27,0.0,1007.40,311.7
2019-09-27 15:10,50.6304616666667,-96.9807766666667,6.4,9.6,275,980.34,7.0,77,14.21,0.0,1007.49,311.7
2019-09-27 15:20,50.6304283333333,-96.9807416666667,6.5,9.9,273,980.40,7.3,77,14.19,0.0,1007.52,311.7
2019-09-27 15:30,50.630465,-96.98077,5.5,10.1,289,980.49,7.4,78,14.20,0.0,1007.59,311.7
2019-09-27 15:40,50.6304616666667,-96.98078,5.6,9.6,288,980.65,7.7,78,14.20,0.0,1007.72,311.7
2019-09-27 15:50,50.6304616666667,-96.9807783333333,6.7,11.1,300,980.68,8.0,78,14.21,0.0,1007.71,311.7
2019-09-27 16:00,50.6304616666667,-96.980775,7.6,11.2,299,980.68,8.0,78,14.25,0.0,1007.70,54.7
2019-09-27 16:10,50.6304616666667,-96.9807733333333,8.5,12.9,311,980.83,7.9,79,14.28,0.0,1007.85,54.7
2019-09-27 16:20,50.6305,-96.9807866666667,9.1,13.1,317,980.83,7.9,78,14.29,0.0,1007.81,54.7
2019-09-27 16:30,50.6304516666667,-96.98078,9.9,12.7,323,980.88,7.9,77,14.30,0.0,1007.84,54.7
2019-09-27 16:40,50.6304566666667,-96.9807783333333,8.7,11.9,328,981.04,8.1,75,14.32,0.0,1007.98,54.7
2019-09-27 16:50,50.6304366666667,-96.9807666666667,7.3,10.9,315,981.17,8.6,71,14.34,0.0,1008.08,54.7
2019-09-27 17:00,50.63045,-96.980785,6.7,12.1,325,981.24,9.0,70,14.35,0.0,1008.12,243.3
2019-09-27 17:10,50.6304516666667,-96.9807766666667,7.9,13.3,333,981.37,9.3,65,14.37,0.0,1008.23,243.3
2019-09-27 17:20,50.6304833333333,-96.9807683333333,8.6,13.6,334,981.43,9.3,62,14.40,0.0,1008.28,243.3
2019-09-27 17:30,50.6304633333333,-96.9807766666667,8.8,13.9,336,981.54,9.3,62,14.46,0.0,1008.37,243.3
2019-09-27 17:40,50.6304616666667,-96.9807766666667,4.9,9.4,311,981.66,9.6,60,14.48,0.0,1008.48,243.3
2019-09-27 17:50,50.6304633333333,-96.98078,6.0,11.0,294,981.76,9.7,58,14.53,0.0,1008.58,243.3
2019-09-27 18:00,50.6304633333333,-96.9807783333333,5.6,12.6,294,981.89,9.8,58,14.56,0.0,1008.70,305.3
2019-09-27 18:10,50.6304633333333,-96.9807883333333,7.4,10.9,316,981.96,9.8,57,14.55,0.0,1008.78,305.3
2019-09-27 18:20,50.6304633333333,-96.98078,8.8,13.6,341,981.99,9.9,56,14.60,0.0,1008.80,305.3
2019-09-27 18:30,50.6304583333333,-96.980775,7.0,12.0,321,982.08,9.6,56,14.64,0.0,1008.90,305.3
2019-09-27 18:40,50.6304616666667,-96.980775,9.7,16.4,306,982.07,9.8,48,14.66,0.0,1008.86,305.3
2019-09-27 18:50,50.6304583333333,-96.9807766666667,7.5,16.1,298,982.15,10.4,48,14.67,0.0,1008.90,305.3
2019-09-27 19:00,50.6304583333333,-96.980775,9.0,15.2,301,982.18,10.3,46,14.70,0.0,1008.91,360.0
2019-09-27 19:10,50.6304566666667,-96.980775,7.1,13.3,310,982.27,10.3,45,14.71,0.0,1009.00,360.0
2019-09-27 19:20,50.6304566666667,-96.9807733333333,9.0,17.5,308,982.23,10.5,42,14.71,0.0,1008.95,360.0
2019-09-27 19:30,50.630455,-96.9807766666667,6.9,11.8,309,982.32,10.7,41,14.72,0.0,1009.02,360.0
2019-09-27 19:40,50.630455,-96.9807766666667,9.8,15.7,305,982.33,10.4,43,14.72,0.0,1009.04,360.0
2019-09-27 19:50,50.6304566666667,-96.9807733333333,8.3,14.4,303,982.47,10.3,43,14.73,0.0,1009.19,360.0
2019-09-27 20:00,50.6304666666667,-96.980805,9.4,14.8,297,982.49,10.2,42,14.75,0.0,1009.21,318.8
2019-09-27 20:10,50.6304583333333,-96.9807733333333,8.5,15.2,286,982.62,10.2,41,14.76,0.0,1009.34,318.8
2019-09-27 20:20,50.6304566666667,-96.980775,9.2,16.9,276,982.70,10.8,38,14.77,0.0,1009.41,318.8
2019-09-27 20:30,50.63045,-96.9807766666667,9.9,14.9,307,982.74,10.6,41,14.77,0.0,1009.45,318.8
2019-09-27 20:40,50.6304516666667,-96.9807766666667,11.3,17.1,307,982.80,10.3,41,14.73,0.0,1009.50,318.8
2019-09-27 20:50,50.6304516666667,-96.9807733333333,8.6,14.2,298,983.02,10.2,42,14.70,0.0,1009.72,318.8
2019-09-27 21:00,50.6304533333333,-96.980775,8.1,14.1,296,983.12,10.3,43,14.69,0.0,1009.83,167.4
2019-09-27 21:10,50.630455,-96.980775,9.6,14.2,305,983.21,10.2,42,14.71,0.0,1009.92,167.4
2019-09-27 21:20,50.6304783333333,-96.980805,8.8,14.4,306,983.38,10.1,43,14.72,0.0,1010.08,167.4
2019-09-27 21:30,50.6304633333333,-96.9807916666667,9.4,15.4,296,983.54,10.0,43,14.72,0.0,1010.26,167.4
2019-09-27 21:40,50.6304616666667,-96.9807833333333,9.5,15.7,301,983.64,10.0,44,14.69,0.0,1010.38,167.4
2019-09-27 21:50,50.6304416666667,-96.9807816666667,8.5,12.3,306,983.82,10.0,43,14.63,0.0,1010.56,167.4
2019-09-27 22:00,50.630455,-96.9807783333333,7.4,12.3,315,983.96,10.3,44,14.58,0.0,1010.69,234.7
2019-09-27 22:10,50.6304566666667,-96.9807783333333,9.8,15.0,322,983.97,10.2,44,14.54,0.0,1010.69,234.7
2019-09-27 22:20,50.630455,-96.9807733333333,8.2,15.5,320,984.17,10.3,44,14.52,0.0,1010.89,234.7
2019-09-27 22:30,50.6304566666667,-96.9807716666667,10.1,15.2,313,984.24,10.1,43,14.50,0.0,1010.99,234.7
2019-09-27 22:40,50.6304566666667,-96.98077,7.9,12.4,309,984.47,9.9,44,14.48,0.0,1011.23,234.7
2019-09-27 22:50,50.630455,-96.9807683333333,6.9,9.3,314,984.66,9.8,45,14.47,0.0,1011.43,234.7
2019-09-27 23:00,50.63047,-96.9807583333333,6.6,10.7,323,984.80,9.8,47,14.48,0.0,1011.58,79.8
2019-09-27 23:10,50.6304616666667,-96.98077,6.9,11.1,320,984.96,9.7,47,14.49,0.0,1011.76,79.8
2019-09-27 23:20,50.6304616666667,-96.980765,6.5,10.5,317,985.19,9.5,47,14.51,0.0,1012.00,79.8
2019-09-27 23:30,50.6304733333333,-96.980745,5.5,11.0,318,985.37,9.4,48,14.49,0.0,1012.20,79.8
